Total_Precipitation_Accumulation
0.81 1.10 1.18 1.00 0.99 1.04 0.96 0.98 1.04 0.98 0.85 0.96 0.95 0.91 0.98 0.92 0.77 0.66 0.66 0.71 0.65 0.55 0.54 0.49 0.46 0.53 0.54 0.48 0.45 0.52 0.59 0.63 0.64 0.75 0.89 1.01 1.12 1.27 1.47 1.52 1.56 1.68 1.73 1.73
0.86 0.90 0.73 0.75 0.80 0.88 0.88 0.91 0.94 0.85 0.74 0.79 0.87 0.92 0.93 0.86 0.79 0.69 0.63 0.56 0.58 0.50 0.46 0.41 0.39 0.41 0.44 0.44 0.43 0.46 0.58 0.68 0.72 0.79 0.93 1.11 1.37 1.44 1.58 1.79 1.79 1.78 1.83 1.86
0.74 0.64 0.56 0.65 0.76 0.83 0.85 0.81 0.76 0.79 0.76 0.77 0.85 1.07 0.99 0.90 0.75 0.66 0.59 0.49 0.43 0.42 0.39 0.32 0.34 0.38 0.39 0.42 0.50 0.54 0.66 0.85 1.01 1.10 1.34 1.67 1.94 1.99 1.93 1.96 2.02 2.02 2.03 2.08
0.78 0.56 0.55 0.65 0.69 0.73 0.89 0.62 0.56 0.67 0.85 0.99 0.82 1.20 0.97 0.86 0.78 0.61 0.55 0.51 0.44 0.44 0.47 0.37 0.35 0.39 0.39 0.44 0.58 0.77 0.97 1.26 1.48 1.59 1.77 2.04 2.19 2.24 2.12 2.11 2.13 2.17 2.09 2.02
0.78 0.59 0.59 0.67 0.62 0.58 0.71 0.57 0.57 0.67 0.82 0.87 0.72 0.90 0.86 0.70 0.78 0.67 0.61 0.57 0.51 0.50 0.50 0.50 0.49 0.54 0.56 0.67 0.89 1.24 1.53 1.72 1.86 1.89 1.94 2.19 2.34 2.51 2.51 2.38 2.24 2.19 2.20 2.16
0.68 0.59 0.62 0.66 0.58 0.52 0.60 0.67 0.73 0.76 0.89 1.04 0.68 0.71 0.86 0.70 0.65 0.68 0.68 0.61 0.56 0.53 0.55 0.66 0.79 0.92 0.99 1.09 1.32 1.56 1.73 1.88 1.86 1.83 1.85 1.99 2.19 2.37 2.39 2.40 2.36 2.28 2.21 2.14
0.70 0.64 0.59 0.54 0.63 0.63 0.67 0.91 1.21 1.23 1.19 0.99 0.57 0.69 0.73 0.52 0.48 0.55 0.62 0.62 0.59 0.55 0.64 0.87 1.05 1.19 1.28 1.39 1.51 1.58 1.57 1.66 1.69 1.67 1.68 1.74 1.81 1.85 1.90 2.02 1.96 1.86 1.77 1.71
0.59 0.63 0.51 0.44 0.49 0.58 0.63 0.72 1.09 1.24 1.08 0.87 0.65 0.85 0.75 0.55 0.53 0.46 0.51 0.60 0.70 0.80 0.92 1.05 1.16 1.27 1.33 1.47 1.53 1.49 1.46 1.44 1.39 1.35 1.41 1.45 1.47 1.54 1.53 1.51 1.49 1.42 1.37 1.36
0.47 0.50 0.40 0.37 0.36 0.44 0.55 0.57 0.63 0.86 0.82 0.85 0.75 0.84 0.75 0.55 0.53 0.48 0.49 0.59 0.74 0.94 1.18 1.35 1.34 1.26 1.23 1.29 1.37 1.35 1.29 1.24 1.15 1.09 1.15 1.22 1.32 1.32 1.26 1.19 1.13 1.14 1.07 1.08
0.40 0.49 0.44 0.40 0.40 0.42 0.44 0.51 0.66 0.97 1.14 1.12 0.87 0.94 0.90 0.68 0.62 0.59 0.62 0.72 0.88 1.06 1.29 1.56 1.66 1.53 1.30 1.14 1.17 1.14 1.13 1.18 1.18 1.14 1.14 1.13 1.08 1.01 0.97 0.97 0.89 0.88 0.95 0.97
0.33 0.45 0.45 0.43 0.43 0.45 0.46 0.54 0.68 0.89 0.91 1.18 1.41 1.34 0.98 0.84 0.77 0.75 0.81 0.89 0.96 1.20 1.49 1.62 1.64 1.51 1.36 1.10 1.04 1.03 1.03 1.09 1.18 1.11 1.13 1.11 1.00 0.88 0.83 0.77 0.71 0.73 0.79 0.83
0.31 0.44 0.44 0.38 0.35 0.33 0.40 0.51 0.70 1.08 1.05 1.00 1.23 1.24 0.79 0.81 0.92 0.85 0.91 1.01 1.04 1.13 1.19 1.19 1.29 1.32 1.25 1.11 1.04 1.11 1.16 1.18 1.15 1.10 1.07 1.03 0.97 0.87 0.86 0.78 0.69 0.72 0.77 0.79
0.33 0.45 0.54 0.51 0.46 0.41 0.51 0.57 0.55 0.76 0.96 0.98 1.16 1.15 0.71 0.68 0.82 0.87 0.96 0.99 0.98 0.98 0.93 0.88 0.99 1.15 1.09 1.03 1.05 1.15 1.29 1.31 1.25 1.14 1.06 1.04 0.99 0.97 0.99 0.86 0.77 0.76 0.84 0.95
0.27 0.36 0.41 0.48 0.44 0.47 0.72 0.81 0.61 0.75 0.99 0.82 0.78 0.85 0.68 0.64 0.76 0.82 0.90 0.93 0.89 0.83 0.77 0.75 0.71 0.77 0.80 0.83 0.83 0.95 1.20 1.44 1.42 1.29 1.17 1.11 1.12 1.15 1.12 0.97 0.90 0.82 0.82 0.85
0.29 0.30 0.23 0.21 0.23 0.29 0.50 0.56 0.48 0.51 0.53 0.60 0.53 0.57 0.65 0.73 0.80 0.80 0.80 0.72 0.65 0.64 0.61 0.57 0.53 0.52 0.53 0.58 0.66 0.79 1.09 1.32 1.33 1.29 1.14 1.05 1.02 1.01 0.98 0.99 1.03 0.96 0.83 0.77
0.27 0.28 0.21 0.19 0.19 0.20 0.24 0.18 0.18 0.23 0.29 0.38 0.44 0.54 0.58 0.64 0.66 0.72 0.70 0.56 0.53 0.55 0.54 0.54 0.50 0.45 0.40 0.40 0.47 0.58 0.78 0.99 1.07 1.09 1.03 0.92 0.92 0.89 0.82 0.87 0.99 1.03 0.91 0.83
0.28 0.31 0.32 0.27 0.21 0.24 0.21 0.13 0.19 0.24 0.27 0.32 0.46 0.60 0.64 0.68 0.73 1.03 1.05 0.74 0.59 0.60 0.54 0.56 0.54 0.49 0.46 0.44 0.45 0.47 0.55 0.69 0.80 0.83 0.80 0.70 0.73 0.86 0.90 0.95 0.96 0.88 0.81 0.83
0.24 0.33 0.42 0.36 0.34 0.40 0.22 0.12 0.19 0.22 0.25 0.26 0.30 0.34 0.41 0.53 0.64 0.80 0.89 0.75 0.62 0.60 0.53 0.52 0.50 0.44 0.43 0.44 0.46 0.50 0.51 0.54 0.58 0.57 0.56 0.53 0.60 0.77 0.82 0.79 0.76 0.72 0.71 0.75
0.19 0.31 0.46 0.45 0.54 0.42 0.18 0.13 0.15 0.16 0.18 0.16 0.20 0.19 0.22 0.26 0.26 0.27 0.30 0.33 0.35 0.33 0.30 0.32 0.36 0.33 0.31 0.32 0.36 0.38 0.37 0.41 0.41 0.41 0.43 0.50 0.54 0.56 0.57 0.55 0.56 0.62 0.68 0.69
0.20 0.26 0.43 0.50 0.58 0.46 0.23 0.14 0.11 0.15 0.25 0.16 0.16 0.15 0.14 0.17 0.22 0.19 0.23 0.17 0.13 0.14 0.16 0.23 0.33 0.36 0.30 0.30 0.34 0.35 0.35 0.38 0.38 0.40 0.45 0.48 0.52 0.55 0.54 0.54 0.56 0.59 0.63 0.66
0.28 0.33 0.37 0.43 0.55 0.35 0.18 0.15 0.15 0.27 0.27 0.13 0.10 0.09 0.09 0.12 0.14 0.14 0.18 0.16 0.13 0.15 0.17 0.21 0.27 0.34 0.33 0.31 0.33 0.33 0.35 0.38 0.45 0.48 0.46 0.46 0.50 0.54 0.58 0.62 0.61 0.60 0.62 0.65
0.30 0.38 0.35 0.37 0.48 0.37 0.16 0.17 0.26 0.26 0.16 0.12 0.11 0.10 0.10 0.11 0.12 0.11 0.13 0.15 0.12 0.14 0.16 0.19 0.22 0.31 0.34 0.35 0.37 0.39 0.39 0.40 0.47 0.50 0.48 0.48 0.52 0.53 0.57 0.67 0.69 0.68 0.69 0.67
0.25 0.31 0.36 0.38 0.35 0.24 0.18 0.18 0.20 0.20 0.17 0.14 0.13 0.12 0.11 0.12 0.12 0.12 0.13 0.17 0.12 0.11 0.16 0.19 0.21 0.28 0.33 0.37 0.42 0.45 0.44 0.43 0.45 0.47 0.50 0.53 0.54 0.54 0.54 0.60 0.66 0.69 0.72 0.72
0.20 0.19 0.26 0.26 0.19 0.14 0.16 0.18 0.16 0.15 0.15 0.15 0.16 0.17 0.16 0.16 0.15 0.15 0.15 0.17 0.15 0.12 0.12 0.15 0.17 0.23 0.31 0.37 0.40 0.47 0.49 0.48 0.49 0.51 0.56 0.60 0.61 0.60 0.59 0.61 0.66 0.70 0.71 0.72
0.16 0.19 0.23 0.23 0.15 0.12 0.13 0.16 0.18 0.16 0.15 0.16 0.16 0.17 0.17 0.17 0.17 0.15 0.15 0.15 0.14 0.16 0.15 0.14 0.16 0.19 0.25 0.32 0.37 0.44 0.50 0.55 0.54 0.54 0.60 0.65 0.67 0.66 0.66 0.67 0.68 0.67 0.66 0.70
0.08 0.13 0.20 0.20 0.14 0.14 0.13 0.13 0.17 0.20 0.18 0.16 0.14 0.14 0.15 0.16 0.15 0.14 0.15 0.16 0.16 0.16 0.17 0.17 0.17 0.17 0.20 0.26 0.30 0.36 0.40 0.48 0.55 0.59 0.59 0.59 0.66 0.69 0.66 0.66 0.66 0.68 0.69 0.73